Location: Unspecified
(51.2667°N, 0.0000°E)
Time: 14:50:03
(UTC+00:00)

nSIGHT-1 - Visible Passes

Search period start: 22 September 2019 00:00
Search period end: 02 October 2019 00:00
Orbit: 341 x 348 km, 51.6° (Epoch: 22 September)

Date Brightness Start Highest point End Pass type
(mag) Time Alt. Az. Time Alt. Az. Time Alt. Az.
22 Sep ? 18:53:40 10° W 18:56:34 70° SSW 18:58:44 16° ESE visible
22 Sep ? 20:29:14 10° W 20:30:09 15° WSW 20:30:09 15° WSW visible
23 Sep ? 19:17:33 10° W 19:20:16 38° SSW 19:21:34 23° SSE visible
24 Sep ? 19:41:39 10° W 19:43:48 19° SW 19:44:25 18° SSW visible
25 Sep ? 18:29:52 10° W 18:32:36 38° SSW 18:35:19 10° SE visible
26 Sep ? 18:53:53 10° W 18:56:01 19° SW 18:58:09 10° SSE visible
